contact:dominique.lefevre@mio.osupytheas.fr, maurice.libes@osupytheas.fr, didier.mallarino@osupytheas.fr
Project:EMSO http://www.emso-fr.org/EMSO-France
Depth: 2436.0 m
Title:EMSO Ligure Ouest : Data MII capteur MICROCAT
DateTime_Computer,Latitude,Longitude,Temperature,Conductivity,Pressure,DateTime_Instrument
DateTime_Computer,Latitude,Longitude,degC,S m-1,dbar,DateTime_Instrument
2020-09-20T00:01:59Z,42.805,6.029,13.2976,4.59983,2470.11,2020-9-20T02:02:51Z
2020-09-20T00:05:00Z,42.805,6.029,13.2982,4.59981,2470.171,2020-9-20T02:05:52Z
2020-09-20T00:08:03Z,42.805,6.029,13.2979,4.59983,2470.156,2020-9-20T02:08:55Z
2020-09-20T00:11:07Z,42.805,6.029,13.2979,4.59980,2470.11,2020-9-20T02:11:59Z
2020-09-20T00:14:10Z,42.805,6.029,13.2980,4.59982,2470.156,2020-9-20T02:15:02Z
2020-09-20T00:17:14Z,42.805,6.029,13.2979,4.59981,2470.147,2020-9-20T02:18:06Z
2020-09-20T00:20:16Z,42.805,6.029,13.2978,4.59981,2470.147,2020-9-20T02:21:08Z
2020-09-20T00:23:20Z,42.805,6.029,13.2982,4.59984,2470.133,2020-9-20T02:24:12Z
2020-09-20T00:26:23Z,42.805,6.029,13.2981,4.59983,2470.11,2020-9-20T02:27:15Z
2020-09-20T00:29:25Z,42.805,6.029,13.2979,4.59983,2470.133,2020-9-20T02:30:17Z
2020-09-20T00:32:30Z,42.805,6.029,13.2979,4.59981,2470.087,2020-9-20T02:33:22Z
2020-09-20T00:35:34Z,42.805,6.029,13.2980,4.59981,2470.11,2020-9-20T02:36:26Z
2020-09-20T00:38:39Z,42.805,6.029,13.2980,4.59981,2470.133,2020-9-20T02:39:31Z
2020-09-20T00:41:42Z,42.805,6.029,13.2983,4.59981,2470.133,2020-9-20T02:42:34Z
2020-09-20T00:44:46Z,42.805,6.029,13.2980,4.59982,2470.11,2020-9-20T02:45:38Z
2020-09-20T00:47:47Z,42.805,6.029,13.2979,4.59984,2470.147,2020-9-20T02:48:39Z
2020-09-20T00:50:50Z,42.805,6.029,13.2979,4.59981,2470.11,2020-9-20T02:51:42Z
2020-09-20T00:53:52Z,42.805,6.029,13.2980,4.59983,2470.147,2020-9-20T02:54:44Z
2020-09-20T00:56:56Z,42.805,6.029,13.2979,4.59981,2470.11,2020-9-20T02:57:48Z
2020-09-20T00:59:58Z,42.805,6.029,13.2980,4.59983,2470.11,2020-9-20T03:00:50Z
2020-09-20T01:03:01Z,42.805,6.029,13.2982,4.59982,2470.11,2020-9-20T03:03:53Z
2020-09-20T01:06:05Z,42.805,6.029,13.2982,4.59982,2470.11,2020-9-20T03:06:57Z
2020-09-20T01:09:08Z,42.805,6.029,13.2981,4.59982,2470.063,2020-9-20T03:10:00Z
2020-09-20T01:12:11Z,42.805,6.029,13.2980,4.59981,2470.087,2020-9-20T03:13:03Z
2020-09-20T01:15:14Z,42.805,6.029,13.2978,4.59981,2470.124,2020-9-20T03:16:06Z
2020-09-20T01:18:17Z,42.805,6.029,13.2979,4.59982,2470.077,2020-9-20T03:19:09Z
2020-09-20T01:21:22Z,42.805,6.029,13.2975,4.59982,2470.1,2020-9-20T03:22:14Z
2020-09-20T01:24:26Z,42.805,6.029,13.2980,4.59983,2470.063,2020-9-20T03:25:18Z
2020-09-20T01:27:29Z,42.805,6.029,13.2980,4.59981,2470.087,2020-9-20T03:28:21Z
2020-09-20T01:30:33Z,42.805,6.029,13.2979,4.59981,2470.087,2020-9-20T03:31:25Z
2020-09-20T01:33:38Z,42.805,6.029,13.2979,4.59981,2470.1,2020-9-20T03:34:30Z
2020-09-20T01:36:43Z,42.805,6.029,13.2982,4.59981,2470.124,2020-9-20T03:37:35Z
2020-09-20T01:39:46Z,42.805,6.029,13.2979,4.59982,2470.077,2020-9-20T03:40:38Z
2020-09-20T01:42:50Z,42.805,6.029,13.2978,4.59982,2470.087,2020-9-20T03:43:42Z
2020-09-20T01:45:52Z,42.805,6.029,13.2979,4.59983,2470.049,2020-9-20T03:46:44Z
2020-09-20T01:48:56Z,42.805,6.029,13.2980,4.59981,2470.04,2020-9-20T03:49:48Z
2020-09-20T01:51:59Z,42.805,6.029,13.2979,4.59983,2470.087,2020-9-20T03:52:51Z
2020-09-20T01:55:03Z,42.805,6.029,13.2980,4.59981,2470.087,2020-9-20T03:55:55Z
2020-09-20T01:58:06Z,42.805,6.029,13.2983,4.59981,2470.087,2020-9-20T03:58:58Z
2020-09-20T02:01:09Z,42.805,6.029,13.2979,4.59981,2470.04,2020-9-20T04:02:01Z
2020-09-20T02:04:13Z,42.805,6.029,13.2981,4.59981,2470.063,2020-9-20T04:05:05Z
2020-09-20T02:07:14Z,42.805,6.029,13.2982,4.59984,2470.077,2020-9-20T04:08:06Z
2020-09-20T02:10:17Z,42.805,6.029,13.2980,4.59982,2470.04,2020-9-20T04:11:09Z
2020-09-20T02:13:22Z,42.805,6.029,13.2985,4.59981,2470.077,2020-9-20T04:14:14Z
2020-09-20T02:16:23Z,42.805,6.029,13.2983,4.59981,2470.063,2020-9-20T04:17:15Z
2020-09-20T02:19:25Z,42.805,6.029,13.2979,4.59982,2470.053,2020-9-20T04:20:17Z
2020-09-20T02:22:27Z,42.805,6.029,13.2980,4.59981,2470.04,2020-9-20T04:23:19Z
2020-09-20T02:25:30Z,42.805,6.029,13.2979,4.59981,2470.04,2020-9-20T04:26:22Z
2020-09-20T02:28:33Z,42.805,6.029,13.2981,4.59984,2470.04,2020-9-20T04:29:25Z
2020-09-20T02:31:36Z,42.805,6.029,13.2980,4.59981,2470.04,2020-9-20T04:32:28Z
2020-09-20T02:34:37Z,42.805,6.029,13.2981,4.59981,2470.04,2020-9-20T04:35:29Z
2020-09-20T02:37:39Z,42.805,6.029,13.2985,4.59981,2470.017,2020-9-20T04:38:31Z
2020-09-20T02:40:41Z,42.805,6.029,13.2983,4.59985,2470.03,2020-9-20T04:41:33Z
2020-09-20T02:43:45Z,42.805,6.029,13.2980,4.59982,2470.017,2020-9-20T04:44:37Z
2020-09-20T02:46:49Z,42.805,6.029,13.2980,4.59981,2470.017,2020-9-20T04:47:41Z
2020-09-20T02:49:54Z,42.805,6.029,13.2978,4.59982,2470.053,2020-9-20T04:50:46Z
2020-09-20T02:52:56Z,42.805,6.029,13.2981,4.59982,2470.017,2020-9-20T04:53:48Z
2020-09-20T02:56:01Z,42.805,6.029,13.2982,4.59981,2470.017,2020-9-20T04:56:53Z
2020-09-20T02:59:05Z,42.805,6.029,13.2982,4.59982,2470.04,2020-9-20T04:59:56Z
2020-09-20T03:02:08Z,42.805,6.029,13.2980,4.59985,2470.03,2020-9-20T05:03:00Z
2020-09-20T03:05:11Z,42.805,6.029,13.2986,4.59984,2469.993,2020-9-20T05:06:03Z
2020-09-20T03:08:12Z,42.805,6.029,13.2980,4.59981,2470.017,2020-9-20T05:09:04Z
2020-09-20T03:11:17Z,42.805,6.029,13.2981,4.59981,2470.063,2020-9-20T05:12:09Z
2020-09-20T03:14:22Z,42.805,6.029,13.2979,4.59982,2470.017,2020-9-20T05:15:14Z
2020-09-20T03:17:27Z,42.805,6.029,13.2979,4.59981,2470.007,2020-9-20T05:18:19Z
2020-09-20T03:20:30Z,42.805,6.029,13.2983,4.59983,2470.03,2020-9-20T05:21:22Z
2020-09-20T03:23:34Z,42.805,6.029,13.2979,4.59981,2470.017,2020-9-20T05:24:26Z
2020-09-20T03:26:36Z,42.805,6.029,13.2980,4.59981,2470.007,2020-9-20T05:27:28Z
2020-09-20T03:29:39Z,42.805,6.029,13.2979,4.59982,2470.017,2020-9-20T05:30:31Z
2020-09-20T03:32:43Z,42.805,6.029,13.2977,4.59981,2470.017,2020-9-20T05:33:35Z
2020-09-20T03:35:47Z,42.805,6.029,13.2981,4.59981,2470.007,2020-9-20T05:36:39Z
2020-09-20T03:38:50Z,42.805,6.029,13.2982,4.59982,2469.993,2020-9-20T05:39:42Z
2020-09-20T03:41:54Z,42.805,6.029,13.2980,4.59981,2469.993,2020-9-20T05:42:46Z
2020-09-20T03:44:58Z,42.805,6.029,13.2983,4.59983,2469.993,2020-9-20T05:45:50Z
2020-09-20T03:48:02Z,42.805,6.029,13.2985,4.59983,2470.017,2020-9-20T05:48:53Z
2020-09-20T03:51:06Z,42.805,6.029,13.2983,4.59983,2470.007,2020-9-20T05:51:58Z
2020-09-20T03:54:07Z,42.805,6.029,13.2984,4.59980,2470.017,2020-9-20T05:54:59Z
2020-09-20T03:57:10Z,42.805,6.029,13.2982,4.59981,2470.04,2020-9-20T05:58:02Z
2020-09-20T04:00:12Z,42.805,6.029,13.2983,4.59981,2470.017,2020-9-20T06:01:04Z
2020-09-20T04:03:13Z,42.805,6.029,13.2980,4.59981,2470.017,2020-9-20T06:04:05Z
2020-09-20T04:06:16Z,42.805,6.029,13.2983,4.59981,2470.03,2020-9-20T06:07:08Z
2020-09-20T04:09:18Z,42.805,6.029,13.2985,4.59980,2470.017,2020-9-20T06:10:10Z
2020-09-20T04:12:21Z,42.805,6.029,13.2982,4.59980,2470.044,2020-9-20T06:13:13Z
2020-09-20T04:15:24Z,42.805,6.029,13.2983,4.59981,2470.017,2020-9-20T06:16:16Z
2020-09-20T04:18:28Z,42.805,6.029,13.2983,4.59983,2470.017,2020-9-20T06:19:20Z
2020-09-20T04:21:29Z,42.805,6.029,13.2980,4.59981,2470.063,2020-9-20T06:22:21Z
2020-09-20T04:24:32Z,42.805,6.029,13.2981,4.59980,2470.007,2020-9-20T06:25:25Z
2020-09-20T04:27:37Z,42.805,6.029,13.2980,4.59981,2470.04,2020-9-20T06:28:29Z
2020-09-20T04:30:42Z,42.805,6.029,13.2984,4.59980,2470.03,2020-9-20T06:31:34Z
2020-09-20T04:33:45Z,42.805,6.029,13.2982,4.59982,2470.017,2020-9-20T06:34:37Z
2020-09-20T04:36:48Z,42.805,6.029,13.2980,4.59981,2470.04,2020-9-20T06:37:40Z
2020-09-20T04:39:51Z,42.805,6.029,13.2983,4.59981,2470.063,2020-9-20T06:40:43Z
2020-09-20T04:42:53Z,42.805,6.029,13.2979,4.59986,2470.053,2020-9-20T06:43:45Z
2020-09-20T04:45:56Z,42.805,6.029,13.2979,4.59982,2470.017,2020-9-20T06:46:48Z
2020-09-20T04:48:58Z,42.805,6.029,13.2983,4.59981,2470.04,2020-9-20T06:49:50Z
2020-09-20T04:52:03Z,42.805,6.029,13.2983,4.59981,2470.04,2020-9-20T06:52:55Z
2020-09-20T04:55:07Z,42.805,6.029,13.2979,4.59984,2470.077,2020-9-20T06:55:59Z
2020-09-20T04:58:08Z,42.805,6.029,13.2978,4.59982,2470.04,2020-9-20T06:59:00Z
2020-09-20T05:01:12Z,42.805,6.029,13.2979,4.59982,2470.04,2020-9-20T07:02:04Z
2020-09-20T05:04:13Z,42.805,6.029,13.2982,4.59981,2470.063,2020-9-20T07:05:06Z
2020-09-20T05:07:18Z,42.805,6.029,13.2979,4.59981,2470.04,2020-9-20T07:08:10Z
2020-09-20T05:10:23Z,42.805,6.029,13.2981,4.59981,2470.077,2020-9-20T07:11:15Z
2020-09-20T05:13:24Z,42.805,6.029,13.2983,4.59980,2470.063,2020-9-20T07:14:16Z
2020-09-20T05:16:26Z,42.805,6.029,13.2979,4.59981,2470.063,2020-9-20T07:17:18Z
2020-09-20T05:19:30Z,42.805,6.029,13.2982,4.59980,2470.063,2020-9-20T07:20:22Z
2020-09-20T05:22:33Z,42.805,6.029,13.2979,4.59981,2470.087,2020-9-20T07:23:25Z
2020-09-20T05:25:37Z,42.805,6.029,13.2979,4.59980,2470.04,2020-9-20T07:26:29Z
2020-09-20T05:28:41Z,42.805,6.029,13.2976,4.59981,2470.063,2020-9-20T07:29:33Z
2020-09-20T05:31:44Z,42.805,6.029,13.2979,4.59981,2470.063,2020-9-20T07:32:36Z
2020-09-20T05:34:46Z,42.805,6.029,13.2981,4.59983,2470.063,2020-9-20T07:35:38Z
2020-09-20T05:37:47Z,42.805,6.029,13.2981,4.59981,2470.1,2020-9-20T07:38:39Z
2020-09-20T05:40:51Z,42.805,6.029,13.2983,4.59983,2470.11,2020-9-20T07:41:43Z
2020-09-20T05:43:52Z,42.805,6.029,13.2980,4.59981,2470.077,2020-9-20T07:44:44Z
2020-09-20T05:46:56Z,42.805,6.029,13.2982,4.59981,2470.1,2020-9-20T07:47:48Z
2020-09-20T05:50:00Z,42.805,6.029,13.2983,4.59981,2470.087,2020-9-20T07:50:52Z
2020-09-20T05:53:03Z,42.805,6.029,13.2982,4.59981,2470.087,2020-9-20T07:53:55Z
2020-09-20T05:56:08Z,42.805,6.029,13.2983,4.59981,2470.087,2020-9-20T07:57:00Z
2020-09-20T05:59:10Z,42.805,6.029,13.2983,4.59981,2470.11,2020-9-20T08:00:02Z
2020-09-20T06:02:15Z,42.805,6.029,13.2978,4.59982,2470.124,2020-9-20T08:03:07Z
2020-09-20T06:05:19Z,42.805,6.029,13.2982,4.59982,2470.087,2020-9-20T08:06:11Z
2020-09-20T06:08:23Z,42.805,6.029,13.2984,4.59981,2470.11,2020-9-20T08:09:15Z
2020-09-20T06:11:24Z,42.805,6.029,13.2982,4.59981,2470.087,2020-9-20T08:12:16Z
2020-09-20T06:14:28Z,42.805,6.029,13.2986,4.59981,2470.124,2020-9-20T08:15:20Z
2020-09-20T06:17:31Z,42.805,6.029,13.2982,4.59981,2470.147,2020-9-20T08:18:23Z
2020-09-20T06:20:33Z,42.805,6.029,13.2982,4.59983,2470.133,2020-9-20T08:21:25Z
2020-09-20T06:23:36Z,42.805,6.029,13.2977,4.59982,2470.156,2020-9-20T08:24:28Z
2020-09-20T06:26:38Z,42.805,6.029,13.2982,4.59982,2470.133,2020-9-20T08:27:30Z
2020-09-20T06:29:42Z,42.805,6.029,13.2978,4.59981,2470.133,2020-9-20T08:30:34Z
2020-09-20T06:32:46Z,42.805,6.029,13.2982,4.59981,2470.133,2020-9-20T08:33:38Z
2020-09-20T06:35:50Z,42.805,6.029,13.2982,4.59982,2470.124,2020-9-20T08:36:42Z
2020-09-20T06:38:54Z,42.805,6.029,13.2980,4.59981,2470.156,2020-9-20T08:39:46Z
2020-09-20T06:41:55Z,42.805,6.029,13.2980,4.59984,2470.171,2020-9-20T08:42:47Z
2020-09-20T06:44:59Z,42.805,6.029,13.2981,4.59981,2470.156,2020-9-20T08:45:51Z
2020-09-20T06:48:02Z,42.805,6.029,13.2983,4.59981,2470.133,2020-9-20T08:48:54Z
2020-09-20T06:51:06Z,42.805,6.029,13.2985,4.59981,2470.156,2020-9-20T08:51:57Z
2020-09-20T06:54:09Z,42.805,6.029,13.2981,4.59981,2470.18,2020-9-20T08:55:01Z
2020-09-20T06:57:10Z,42.805,6.029,13.2979,4.59986,2470.18,2020-9-20T08:58:02Z
2020-09-20T07:00:12Z,42.805,6.029,13.2983,4.59981,2470.156,2020-9-20T09:01:04Z
2020-09-20T07:03:15Z,42.805,6.029,13.2978,4.59982,2470.156,2020-9-20T09:04:07Z
2020-09-20T07:06:17Z,42.805,6.029,13.2983,4.59982,2470.18,2020-9-20T09:07:09Z
2020-09-20T07:09:20Z,42.805,6.029,13.2982,4.59982,2470.194,2020-9-20T09:10:12Z
2020-09-20T07:12:24Z,42.805,6.029,13.2981,4.59981,2470.18,2020-9-20T09:13:16Z
2020-09-20T07:15:26Z,42.805,6.029,13.2982,4.59981,2470.194,2020-9-20T09:16:19Z
2020-09-20T07:18:30Z,42.805,6.029,13.2983,4.59981,2470.217,2020-9-20T09:19:22Z
2020-09-20T07:21:33Z,42.805,6.029,13.2982,4.59981,2470.194,2020-9-20T09:22:25Z
2020-09-20T07:24:38Z,42.805,6.029,13.2979,4.59982,2470.217,2020-9-20T09:25:30Z
2020-09-20T07:27:41Z,42.805,6.029,13.2977,4.59981,2470.217,2020-9-20T09:28:33Z
2020-09-20T07:30:43Z,42.805,6.029,13.2983,4.59984,2470.203,2020-9-20T09:31:35Z
2020-09-20T07:33:45Z,42.805,6.029,13.2979,4.59985,2470.24,2020-9-20T09:34:37Z
2020-09-20T07:36:48Z,42.805,6.029,13.2985,4.59982,2470.203,2020-9-20T09:37:40Z
2020-09-20T07:39:53Z,42.805,6.029,13.2981,4.59984,2470.217,2020-9-20T09:40:45Z
2020-09-20T07:42:57Z,42.805,6.029,13.2982,4.59981,2470.203,2020-9-20T09:43:49Z
2020-09-20T07:46:00Z,42.805,6.029,13.2983,4.59981,2470.24,2020-9-20T09:46:52Z
2020-09-20T07:49:03Z,42.805,6.029,13.2982,4.59982,2470.217,2020-9-20T09:49:55Z
2020-09-20T07:52:07Z,42.805,6.029,13.2984,4.59984,2470.227,2020-9-20T09:52:59Z
2020-09-20T07:55:10Z,42.805,6.029,13.2978,4.59982,2470.203,2020-9-20T09:56:02Z
2020-09-20T07:58:11Z,42.805,6.029,13.2981,4.59981,2470.203,2020-9-20T09:59:03Z
2020-09-20T08:01:12Z,42.805,6.029,13.2985,4.59982,2470.203,2020-9-20T10:02:04Z
2020-09-20T08:04:17Z,42.805,6.029,13.2982,4.59981,2470.203,2020-9-20T10:05:09Z
2020-09-20T08:07:20Z,42.805,6.029,13.2980,4.59985,2470.227,2020-9-20T10:08:12Z
2020-09-20T08:10:24Z,42.805,6.029,13.2980,4.59981,2470.203,2020-9-20T10:11:16Z
2020-09-20T08:13:27Z,42.805,6.029,13.2982,4.59981,2470.203,2020-9-20T10:14:19Z
2020-09-20T08:16:30Z,42.805,6.029,13.2981,4.59981,2470.264,2020-9-20T10:17:22Z
2020-09-20T08:19:33Z,42.805,6.029,13.2982,4.59982,2470.25,2020-9-20T10:20:26Z
2020-09-20T08:22:35Z,42.805,6.029,13.2983,4.59981,2470.264,2020-9-20T10:23:27Z
2020-09-20T08:25:38Z,42.805,6.029,13.2985,4.59981,2470.287,2020-9-20T10:26:30Z
2020-09-20T08:28:40Z,42.805,6.029,13.2980,4.59984,2470.25,2020-9-20T10:29:32Z
2020-09-20T08:31:42Z,42.805,6.029,13.2982,4.59981,2470.25,2020-9-20T10:32:34Z
2020-09-20T08:34:46Z,42.805,6.029,13.2984,4.59981,2470.25,2020-9-20T10:35:38Z
2020-09-20T08:37:47Z,42.805,6.029,13.2981,4.59982,2470.24,2020-9-20T10:38:39Z
2020-09-20T08:40:51Z,42.805,6.029,13.2981,4.59981,2470.273,2020-9-20T10:41:44Z
2020-09-20T08:43:55Z,42.805,6.029,13.2982,4.59982,2470.24,2020-9-20T10:44:47Z
2020-09-20T08:46:59Z,42.805,6.029,13.2981,4.59982,2470.227,2020-9-20T10:47:51Z
2020-09-20T08:50:02Z,42.805,6.029,13.2976,4.59981,2470.25,2020-9-20T10:50:54Z
2020-09-20T08:53:05Z,42.805,6.029,13.2984,4.59981,2470.264,2020-9-20T10:53:57Z
2020-09-20T08:56:09Z,42.805,6.029,13.2979,4.59984,2470.24,2020-9-20T10:57:01Z
2020-09-20T08:59:12Z,42.805,6.029,13.2982,4.59986,2470.227,2020-9-20T11:00:04Z
2020-09-20T09:02:16Z,42.805,6.029,13.2979,4.59982,2470.273,2020-9-20T11:03:08Z
2020-09-20T09:05:17Z,42.805,6.029,13.2979,4.59981,2470.25,2020-9-20T11:06:10Z
2020-09-20T09:08:22Z,42.805,6.029,13.2980,4.59982,2470.264,2020-9-20T11:09:15Z
2020-09-20T09:11:26Z,42.805,6.029,13.2984,4.59981,2470.25,2020-9-20T11:12:18Z
2020-09-20T09:14:30Z,42.805,6.029,13.2982,4.59981,2470.264,2020-9-20T11:15:22Z
2020-09-20T09:17:33Z,42.805,6.029,13.2981,4.59981,2470.25,2020-9-20T11:18:25Z
2020-09-20T09:20:34Z,42.805,6.029,13.2980,4.59986,2470.24,2020-9-20T11:21:26Z
2020-09-20T09:23:39Z,42.805,6.029,13.2981,4.59983,2470.25,2020-9-20T11:24:31Z
2020-09-20T09:26:43Z,42.805,6.029,13.2975,4.59981,2470.25,2020-9-20T11:27:35Z
2020-09-20T09:29:47Z,42.805,6.029,13.2983,4.59983,2470.227,2020-9-20T11:30:39Z
2020-09-20T09:32:51Z,42.805,6.029,13.2980,4.59981,2470.25,2020-9-20T11:33:43Z
2020-09-20T09:35:55Z,42.805,6.029,13.2978,4.59983,2470.24,2020-9-20T11:36:47Z
2020-09-20T09:38:59Z,42.805,6.029,13.2979,4.59981,2470.264,2020-9-20T11:39:51Z
2020-09-20T09:42:02Z,42.805,6.029,13.2980,4.59981,2470.264,2020-9-20T11:42:54Z
2020-09-20T09:45:06Z,42.805,6.029,13.2979,4.59984,2470.25,2020-9-20T11:45:58Z
2020-09-20T09:48:07Z,42.805,6.029,13.2983,4.59981,2470.227,2020-9-20T11:48:59Z
2020-09-20T09:51:11Z,42.805,6.029,13.2980,4.59981,2470.24,2020-9-20T11:52:03Z
2020-09-20T09:54:13Z,42.805,6.029,13.2985,4.59981,2470.25,2020-9-20T11:55:05Z
2020-09-20T09:57:15Z,42.805,6.029,13.2979,4.59982,2470.203,2020-9-20T11:58:07Z
2020-09-20T10:00:20Z,42.805,6.029,13.2982,4.59981,2470.24,2020-9-20T12:01:12Z
2020-09-20T10:03:24Z,42.805,6.029,13.2981,4.59982,2470.24,2020-9-20T12:04:16Z
2020-09-20T10:06:27Z,42.805,6.029,13.2982,4.59983,2470.227,2020-9-20T12:07:19Z
2020-09-20T10:09:28Z,42.805,6.029,13.2983,4.59982,2470.217,2020-9-20T12:10:20Z
2020-09-20T10:12:33Z,42.805,6.029,13.2979,4.59983,2470.227,2020-9-20T12:13:25Z
2020-09-20T10:15:36Z,42.805,6.029,13.2984,4.59983,2470.227,2020-9-20T12:16:28Z
2020-09-20T10:18:40Z,42.805,6.029,13.2981,4.59981,2470.227,2020-9-20T12:19:32Z
2020-09-20T10:21:44Z,42.805,6.029,13.2986,4.59981,2470.217,2020-9-20T12:22:36Z
2020-09-20T10:24:48Z,42.805,6.029,13.2979,4.59981,2470.227,2020-9-20T12:25:40Z
2020-09-20T10:27:53Z,42.805,6.029,13.2981,4.59981,2470.227,2020-9-20T12:28:45Z
2020-09-20T10:30:55Z,42.805,6.029,13.2979,4.59981,2470.24,2020-9-20T12:31:47Z
2020-09-20T10:33:59Z,42.805,6.029,13.2982,4.59982,2470.18,2020-9-20T12:34:51Z
2020-09-20T10:37:03Z,42.805,6.029,13.2979,4.59982,2470.203,2020-9-20T12:37:56Z
2020-09-20T10:40:07Z,42.805,6.029,13.2979,4.59981,2470.18,2020-9-20T12:40:59Z
2020-09-20T10:43:08Z,42.805,6.029,13.2979,4.59981,2470.217,2020-9-20T12:44:00Z
2020-09-20T10:46:12Z,42.805,6.029,13.2979,4.59981,2470.18,2020-9-20T12:47:04Z
2020-09-20T10:49:14Z,42.805,6.029,13.2980,4.59982,2470.203,2020-9-20T12:50:06Z
2020-09-20T10:52:16Z,42.805,6.029,13.2981,4.59984,2470.18,2020-9-20T12:53:08Z
2020-09-20T10:55:17Z,42.805,6.029,13.2983,4.59983,2470.203,2020-9-20T12:56:09Z
2020-09-20T10:58:21Z,42.805,6.029,13.2983,4.59982,2470.18,2020-9-20T12:59:13Z
2020-09-20T11:01:25Z,42.805,6.029,13.2983,4.59982,2470.203,2020-9-20T13:02:17Z
2020-09-20T11:04:28Z,42.805,6.029,13.2983,4.59983,2470.203,2020-9-20T13:05:20Z
2020-09-20T11:07:31Z,42.805,6.029,13.2979,4.59981,2470.194,2020-9-20T13:08:24Z
2020-09-20T11:10:36Z,42.805,6.029,13.2979,4.59981,2470.18,2020-9-20T13:11:28Z
2020-09-20T11:13:41Z,42.805,6.029,13.2977,4.59981,2470.156,2020-9-20T13:14:33Z
2020-09-20T11:16:44Z,42.805,6.029,13.2982,4.59981,2470.156,2020-9-20T13:17:37Z
2020-09-20T11:19:48Z,42.805,6.029,13.2981,4.59981,2470.171,2020-9-20T13:20:40Z
2020-09-20T11:22:51Z,42.805,6.029,13.2982,4.59982,2470.171,2020-9-20T13:23:43Z
2020-09-20T11:25:55Z,42.805,6.029,13.2984,4.59981,2470.156,2020-9-20T13:26:47Z
2020-09-20T11:28:58Z,42.805,6.029,13.2982,4.59982,2470.156,2020-9-20T13:29:50Z
2020-09-20T11:32:01Z,42.805,6.029,13.2980,4.59981,2470.156,2020-9-20T13:32:53Z
2020-09-20T11:35:06Z,42.805,6.029,13.2981,4.59980,2470.171,2020-9-20T13:35:58Z
2020-09-20T11:38:08Z,42.805,6.029,13.2981,4.59981,2470.119,2020-9-20T13:39:00Z
2020-09-20T11:41:13Z,42.805,6.029,13.2979,4.59981,2470.18,2020-9-20T13:42:05Z
2020-09-20T11:44:17Z,42.805,6.029,13.2981,4.59983,2470.156,2020-9-20T13:45:10Z
2020-09-20T11:47:21Z,42.805,6.029,13.2980,4.59981,2470.147,2020-9-20T13:48:13Z
2020-09-20T11:50:23Z,42.805,6.029,13.2980,4.59986,2470.124,2020-9-20T13:51:15Z
2020-09-20T11:53:24Z,42.805,6.029,13.2981,4.59981,2470.156,2020-9-20T13:54:16Z
2020-09-20T11:56:28Z,42.805,6.029,13.2982,4.59983,2470.171,2020-9-20T13:57:20Z
2020-09-20T11:59:31Z,42.805,6.029,13.2977,4.59983,2470.133,2020-9-20T14:00:23Z
2020-09-20T12:02:32Z,42.805,6.029,13.2978,4.59981,2470.156,2020-9-20T14:03:24Z
2020-09-20T12:05:37Z,42.805,6.029,13.2981,4.59981,2470.156,2020-9-20T14:06:29Z
2020-09-20T12:08:40Z,42.805,6.029,13.2982,4.59982,2470.156,2020-9-20T14:09:32Z
2020-09-20T12:11:44Z,42.805,6.029,13.2979,4.59980,2470.133,2020-9-20T14:12:36Z
2020-09-20T12:14:45Z,42.805,6.029,13.2982,4.59981,2470.147,2020-9-20T14:15:37Z
2020-09-20T12:17:46Z,42.805,6.029,13.2982,4.59983,2470.133,2020-9-20T14:18:38Z
2020-09-20T12:20:51Z,42.805,6.029,13.2981,4.59981,2470.11,2020-9-20T14:21:43Z
2020-09-20T12:23:54Z,42.805,6.029,13.2982,4.59986,2470.171,2020-9-20T14:24:46Z
2020-09-20T12:26:57Z,42.805,6.029,13.2979,4.59981,2470.156,2020-9-20T14:27:49Z
2020-09-20T12:30:00Z,42.805,6.029,13.2979,4.59981,2470.147,2020-9-20T14:30:53Z
2020-09-20T12:33:02Z,42.805,6.029,13.2979,4.59981,2470.124,2020-9-20T14:33:54Z
2020-09-20T12:36:07Z,42.805,6.029,13.2983,4.59981,2470.133,2020-9-20T14:36:59Z
2020-09-20T12:39:11Z,42.805,6.029,13.2982,4.59982,2470.133,2020-9-20T14:40:03Z
2020-09-20T12:42:14Z,42.805,6.029,13.2979,4.59981,2470.11,2020-9-20T14:43:06Z
2020-09-20T12:45:17Z,42.805,6.029,13.2981,4.59981,2470.087,2020-9-20T14:46:10Z
2020-09-20T12:48:22Z,42.805,6.029,13.2982,4.59981,2470.147,2020-9-20T14:49:14Z
2020-09-20T12:51:23Z,42.805,6.029,13.2981,4.59981,2470.133,2020-9-20T14:52:15Z
2020-09-20T12:54:28Z,42.805,6.029,13.2976,4.59981,2470.1,2020-9-20T14:55:20Z
2020-09-20T12:57:32Z,42.805,6.029,13.2979,4.59981,2470.11,2020-9-20T14:58:24Z
2020-09-20T13:00:36Z,42.805,6.029,13.2978,4.59981,2470.087,2020-9-20T15:01:29Z
2020-09-20T13:03:40Z,42.805,6.029,13.2982,4.59981,2470.11,2020-9-20T15:04:32Z
2020-09-20T13:06:43Z,42.805,6.029,13.2978,4.59983,2470.096,2020-9-20T15:07:35Z
2020-09-20T13:09:44Z,42.805,6.029,13.2976,4.59981,2470.1,2020-9-20T15:10:36Z
2020-09-20T13:12:48Z,42.805,6.029,13.2982,4.59981,2470.124,2020-9-20T15:13:40Z
2020-09-20T13:15:49Z,42.805,6.029,13.2982,4.59981,2470.124,2020-9-20T15:16:41Z
2020-09-20T13:18:53Z,42.805,6.029,13.2983,4.59981,2470.147,2020-9-20T15:19:45Z
2020-09-20T13:21:55Z,42.805,6.029,13.2980,4.59981,2470.1,2020-9-20T15:22:47Z
2020-09-20T13:24:57Z,42.805,6.029,13.2978,4.59981,2470.11,2020-9-20T15:25:49Z
2020-09-20T13:28:00Z,42.805,6.029,13.2982,4.59980,2470.049,2020-9-20T15:28:52Z
2020-09-20T13:31:03Z,42.805,6.029,13.2976,4.59982,2470.11,2020-9-20T15:31:55Z
2020-09-20T13:34:06Z,42.805,6.029,13.2979,4.59985,2470.077,2020-9-20T15:34:58Z
2020-09-20T13:37:07Z,42.805,6.029,13.2982,4.59983,2470.1,2020-9-20T15:37:59Z
2020-09-20T13:40:09Z,42.805,6.029,13.2980,4.59982,2470.087,2020-9-20T15:41:01Z
2020-09-20T13:43:12Z,42.805,6.029,13.2982,4.59981,2470.077,2020-9-20T15:44:04Z
2020-09-20T13:46:15Z,42.805,6.029,13.2979,4.59981,2470.063,2020-9-20T15:47:07Z
2020-09-20T13:49:17Z,42.805,6.029,13.2979,4.59983,2470.077,2020-9-20T15:50:09Z
2020-09-20T13:52:20Z,42.805,6.029,13.2979,4.59981,2470.063,2020-9-20T15:53:12Z
2020-09-20T13:55:23Z,42.805,6.029,13.2982,4.59981,2470.11,2020-9-20T15:56:15Z
2020-09-20T13:58:28Z,42.805,6.029,13.2978,4.59981,2470.04,2020-9-20T15:59:20Z
2020-09-20T14:01:31Z,42.805,6.029,13.2982,4.59983,2470.063,2020-9-20T16:02:23Z
2020-09-20T14:04:34Z,42.805,6.029,13.2980,4.59981,2470.063,2020-9-20T16:05:26Z
2020-09-20T14:07:38Z,42.805,6.029,13.2979,4.59981,2470.087,2020-9-20T16:08:30Z
2020-09-20T14:10:41Z,42.805,6.029,13.2980,4.59982,2470.063,2020-9-20T16:11:33Z
2020-09-20T14:13:44Z,42.805,6.029,13.2980,4.59982,2470.04,2020-9-20T16:14:36Z
2020-09-20T14:16:47Z,42.805,6.029,13.2980,4.59981,2470.04,2020-9-20T16:17:39Z
2020-09-20T14:19:52Z,42.805,6.029,13.2979,4.59981,2470.04,2020-9-20T16:20:44Z
2020-09-20T14:22:55Z,42.805,6.029,13.2983,4.59981,2470.077,2020-9-20T16:23:47Z
2020-09-20T14:25:59Z,42.805,6.029,13.2976,4.59982,2470.063,2020-9-20T16:26:51Z
2020-09-20T14:29:04Z,42.805,6.029,13.2976,4.59981,2470.04,2020-9-20T16:29:56Z
2020-09-20T14:32:07Z,42.805,6.029,13.2979,4.59980,2470.03,2020-9-20T16:32:59Z
2020-09-20T14:35:11Z,42.805,6.029,13.2982,4.59981,2470.03,2020-9-20T16:36:04Z
2020-09-20T14:38:13Z,42.805,6.029,13.2979,4.59982,2469.993,2020-9-20T16:39:05Z
2020-09-20T14:41:18Z,42.805,6.029,13.2983,4.59981,2470.03,2020-9-20T16:42:10Z
2020-09-20T14:44:23Z,42.805,6.029,13.2977,4.59981,2470.04,2020-9-20T16:45:15Z
2020-09-20T14:47:28Z,42.805,6.029,13.2980,4.59980,2470.053,2020-9-20T16:48:20Z
2020-09-20T14:50:29Z,42.805,6.029,13.2977,4.59981,2470.007,2020-9-20T16:51:21Z
2020-09-20T14:53:32Z,42.805,6.029,13.2977,4.59981,2470.017,2020-9-20T16:54:24Z
2020-09-20T14:56:36Z,42.805,6.029,13.2981,4.59982,2470.04,2020-9-20T16:57:28Z
2020-09-20T14:59:37Z,42.805,6.029,13.2979,4.59980,2470.017,2020-9-20T17:00:29Z
2020-09-20T15:02:41Z,42.805,6.029,13.2979,4.59980,2470.017,2020-9-20T17:03:33Z
2020-09-20T15:05:44Z,42.805,6.029,13.2981,4.59981,2470.063,2020-9-20T17:06:36Z
2020-09-20T15:08:47Z,42.805,6.029,13.2977,4.59981,2470.017,2020-9-20T17:09:39Z
2020-09-20T15:11:48Z,42.805,6.029,13.2979,4.59981,2470.04,2020-9-20T17:12:40Z
2020-09-20T15:14:52Z,42.805,6.029,13.2982,4.59981,2470.053,2020-9-20T17:15:44Z